DAL1882 TJSJ-KATL

Flight info

Callsign DAL1882
Flight time N/A
Altitude 40000
Route ACONY3 PALDE DCT DONQU Y185 MANLE Q89 SHRKS DCT LAIRI DCT LARZZ JJEDI4
Aircraft A359/H-SDE2E3GHIJ3J4J5LM1ORWXY/LB1D1

Departure

Time 2026-05-06 19:13
Airport Luis Munoz Marin International Airport (TJSJ)

Arrival

Time N/A
Airport Hartsfield Jackson Atlanta International Airport (KATL)
Time Latitude Longitude Altitude Speed Heading
2026-05-06 18:27 18.43674 -66.00085 23 ft 0 kts 259°
2026-05-06 19:00 18.43678 -66.00063 29 ft 4 kts 259°
2026-05-06 19:01 18.43683 -66.00035 27 ft 4 kts 259°
2026-05-06 19:01 18.43687 -66.00010 27 ft 3 kts 260°
2026-05-06 19:01 18.43686 -65.99986 26 ft 4 kts 311°
2026-05-06 19:01 18.43665 -65.99971 28 ft 4 kts 338°
2026-05-06 19:02 18.43658 -65.99968 29 ft 0 kts 339°
2026-05-06 19:06 18.43676 -65.99976 24 ft 7 kts 338°
2026-05-06 19:06 18.43730 -65.99999 27 ft 10 kts 338°
2026-05-06 19:07 18.43801 -66.00030 25 ft 12 kts 337°
2026-05-06 19:07 18.43887 -66.00069 26 ft 15 kts 337°
2026-05-06 19:07 18.43989 -66.00114 27 ft 17 kts 337°
2026-05-06 19:07 18.44101 -66.00163 26 ft 14 kts 336°
2026-05-06 19:08 18.44182 -66.00205 27 ft 12 kts 332°
2026-05-06 19:08 18.44243 -66.00249 26 ft 10 kts 300°
2026-05-06 19:08 18.44231 -66.00321 26 ft 11 kts 251°
2026-05-06 19:08 18.44197 -66.00406 27 ft 14 kts 247°
2026-05-06 19:09 18.44143 -66.00501 26 ft 16 kts 230°
2026-05-06 19:09 18.44095 -66.00578 26 ft 11 kts 243°
2026-05-06 19:09 18.44062 -66.00656 28 ft 13 kts 246°
2026-05-06 19:09 18.44024 -66.00751 25 ft 15 kts 246°
2026-05-06 19:10 18.43977 -66.00863 27 ft 18 kts 246°
2026-05-06 19:10 18.43930 -66.00977 26 ft 15 kts 246°
2026-05-06 19:10 18.43886 -66.01086 25 ft 17 kts 247°
2026-05-06 19:10 18.43850 -66.01187 26 ft 14 kts 249°
2026-05-06 19:11 18.43816 -66.01282 25 ft 13 kts 253°
2026-05-06 19:11 18.43805 -66.01365 26 ft 12 kts 255°
2026-05-06 19:11 18.43772 -66.01455 24 ft 13 kts 248°
2026-05-06 19:11 18.43771 -66.01530 26 ft 8 kts 299°
2026-05-06 19:12 18.43812 -66.01564 27 ft 6 kts 335°
2026-05-06 19:12 18.43840 -66.01559 27 ft 3 kts 42°
2026-05-06 19:12 18.43856 -66.01531 28 ft 6 kts 60°
2026-05-06 19:12 18.43893 -66.01445 28 ft 30 kts 67°
2026-05-06 19:13 18.44076 -66.00991 25 ft 102 kts 67°
2026-05-06 19:13 18.44441 -66.00099 34 ft 161 kts 68°
2026-05-06 19:13 18.44881 -65.99036 744 ft 158 kts 72°
2026-05-06 19:13 18.45300 -65.97943 1399 ft 168 kts 66°
2026-05-06 19:14 18.46209 -65.97034 1749 ft 200 kts 29°
2026-05-06 19:14 18.47679 -65.96791 2064 ft 231 kts 353°
2026-05-06 19:14 18.49197 -65.97510 2493 ft 252 kts 318°
2026-05-06 19:14 18.50201 -65.99064 3006 ft 265 kts 290°
2026-05-06 19:15 18.51043 -66.00821 3688 ft 274 kts 306°
2026-05-06 19:15 18.52529 -66.02105 4404 ft 282 kts 334°
2026-05-06 19:15 18.54356 -66.02855 5282 ft 281 kts 337°
2026-05-06 19:15 18.56103 -66.03799 6109 ft 283 kts 327°
2026-05-06 19:16 18.57795 -66.04913 6808 ft 290 kts 329°
2026-05-06 19:16 18.59572 -66.05921 7619 ft 291 kts 333°
2026-05-06 19:16 18.61402 -66.06853 8485 ft 292 kts 334°
2026-05-06 19:16 18.63248 -66.07750 9396 ft 292 kts 335°
2026-05-06 19:17 18.65099 -66.08628 10220 ft 294 kts 335°
2026-05-06 19:17 18.67011 -66.09525 10739 ft 309 kts 335°
2026-05-06 19:17 18.69035 -66.10469 11071 ft 328 kts 335°
2026-05-06 19:17 18.71179 -66.11464 11425 ft 344 kts 335°
2026-05-06 19:18 18.73403 -66.12494 11978 ft 352 kts 336°
2026-05-06 19:18 18.75660 -66.13538 12641 ft 356 kts 335°
2026-05-06 19:18 18.77907 -66.14578 13327 ft 359 kts 335°
2026-05-06 19:18 18.80213 -66.15645 13985 ft 363 kts 336°
2026-05-06 19:19 18.82539 -66.16721 14601 ft 366 kts 335°
2026-05-06 19:19 18.84872 -66.17801 15299 ft 366 kts 335°
2026-05-06 19:19 18.87207 -66.18883 15965 ft 368 kts 335°
2026-05-06 19:19 18.89573 -66.19980 16553 ft 372 kts 335°
2026-05-06 19:20 18.91946 -66.21079 17240 ft 373 kts 334°
2026-05-06 19:20 18.94314 -66.22225 17911 ft 376 kts 330°
2026-05-06 19:20 18.96495 -66.23755 18503 ft 378 kts 318°
2026-05-06 19:20 18.98239 -66.25825 19070 ft 379 kts 302°
2026-05-06 19:21 18.99310 -66.28370 19602 ft 383 kts 284°
2026-05-06 19:21 18.99501 -66.31187 20154 ft 390 kts 265°